Location: ČR
(50.0000°N, 15.0000°E)
Time: 02:35:07
(UTC+00:00)

N. Korean satellite - Pass Details

Date: 04 October 2021
Orbit: 450 x 495 km, 97.3° (Epoch: 22 October)

Event Time Altitude Azimuth Distance (km) Brightness Sun altitude
Rises 03:58:44 0° 18° (NNE) 2,556 10.6 -11.4°
Reaches altitude 10° 04:00:52 10° 26° (NNE) 1,678 9.7 -11.1°
Maximum altitude 04:04:19 42° 98° (E) 715 8.0 -10.5°
Drops below altitude 10° 04:07:47 10° 171° (S) 1,683 9.4 -10.0°
Sets 04:09:56 0° 178° (S) 2,563 10.2 -9.6°
